Wind_Speed
22 24 24 25 28 30 32 31 29 28 28 28 28 29 34 37 37 37 36 33 30 26 24 22 21 20 20 19 20 22 23 22 22 22 21 21 21 21 21 22 22 23 24 24
21 22 23 25 27 29 30 29 28 27 27 27 27 28 31 35 35 35 35 34 31 29 26 24 22 20 20 20 20 23 24 25 25 24 23 23 24 25 25 25 25 25 25 26
21 22 24 26 27 28 29 28 28 27 27 26 26 27 30 33 34 34 34 35 33 31 28 25 23 21 20 21 20 20 21 23 24 24 26 27 28 29 30 26 26 26 26 26
20 23 25 26 26 27 27 27 28 28 28 26 26 27 28 30 30 31 32 32 33 32 31 28 25 24 22 21 21 22 22 22 24 26 27 29 31 30 29 29 28 27 28 29
20 23 25 25 25 26 26 28 28 29 28 27 26 27 28 28 28 28 30 31 32 32 32 30 28 26 25 23 23 23 23 24 26 27 30 31 33 33 30 30 29 29 30 31
19 22 23 23 24 26 27 29 30 30 29 29 28 27 29 29 29 29 30 31 31 31 31 31 29 27 27 26 25 25 26 28 30 31 33 35 35 34 33 32 31 31 31 31
17 18 20 22 24 25 27 29 30 31 31 30 29 30 31 31 31 31 31 31 32 31 31 32 32 31 30 29 29 29 30 31 32 34 36 37 38 36 35 34 34 33 31 32
14 14 17 20 22 23 26 28 30 31 32 32 31 32 33 32 32 32 32 32 32 32 32 32 32 32 32 32 33 34 34 35 36 38 38 38 37 38 37 35 35 34 35 34
14 14 16 19 21 23 25 27 28 29 30 30 32 33 33 33 34 34 34 33 33 34 34 35 36 36 36 37 37 38 38 39 40 40 39 40 39 38 38 38 37 37 36 36
14 15 17 19 21 23 24 25 27 29 28 29 32 33 34 34 34 35 36 36 36 36 36 37 38 38 39 40 42 42 43 42 41 41 42 43 43 43 42 42 41 39 38 39
14 15 17 19 21 22 24 25 27 28 29 30 31 33 33 34 35 36 37 38 39 39 39 39 39 41 42 42 43 44 44 44 45 45 45 45 45 45 44 44 42 41 42 43
14 15 16 19 20 21 22 24 26 27 28 29 31 34 35 35 36 37 38 39 40 40 40 40 41 41 41 42 43 44 45 46 46 47 47 47 47 46 45 44 44 44 46 46
12 13 15 17 19 20 21 22 24 26 27 29 30 33 33 35 35 36 37 39 39 39 40 39 39 40 41 41 41 42 43 44 45 45 45 45 45 45 45 45 46 47 48 49
9 10 12 15 17 18 19 20 22 23 26 27 29 31 32 33 34 36 37 37 38 39 40 40 39 38 39 38 38 38 39 40 40 41 42 42 42 43 44 45 46 48 49 51
6 8 11 14 16 18 19 21 22 23 25 27 28 30 31 32 33 35 36 37 38 38 39 40 40 39 38 38 37 37 39 39 38 38 40 42 42 43 44 46 47 49 50 51
3 6 8 12 15 17 19 20 22 23 24 26 28 29 30 32 33 33 34 34 36 37 38 38 38 37 36 35 35 36 37 37 38 39 39 39 41 43 44 45 46 47 48 50
4 5 6 9 12 14 18 19 21 22 23 24 26 26 27 28 29 29 30 31 31 32 32 33 33 33 32 31 31 31 32 32 33 34 34 36 37 38 40 42 44 46 48 50
6 5 5 6 9 11 13 15 17 19 22 23 24 25 25 25 25 24 25 26 27 27 28 28 28 27 27 29 29 29 28 29 30 32 33 35 36 38 40 42 44 46 47 49
8 7 7 7 7 9 9 11 13 16 18 20 21 22 22 22 22 21 21 22 22 22 22 22 23 23 24 25 26 27 28 29 30 32 34 36 37 39 40 42 43 45 46 48
9 9 8 8 7 8 9 10 12 14 15 16 16 17 17 18 18 18 17 17 18 19 19 20 21 22 22 23 24 26 27 28 29 31 32 34 35 36 38 39 41 42 44 45
12 12 11 10 9 8 8 9 10 11 12 12 12 13 13 13 13 13 14 14 15 16 17 18 18 19 20 21 23 24 25 26 27 29 30 32 33 34 35 36 38 39 40 41
13 14 13 12 11 10 10 9 9 9 9 9 9 10 11 11 11 11 12 13 13 14 15 16 17 18 19 20 22 23 23 25 26 27 28 29 30 31 33 34 35 35 35 36
14 14 14 13 12 11 11 10 9 8 8 7 7 7 8 8 9 10 11 12 13 13 13 14 15 17 18 20 21 21 22 22 23 24 25 26 28 29 30 30 30 31 31 31
15 15 15 14 13 12 12 11 9 8 7 7 6 7 7 8 9 9 10 10 11 12 12 14 15 16 18 19 19 19 19 19 20 22 23 24 25 26 27 27 27 27 27 26
15 16 15 15 14 13 12 11 9 9 8 7 7 7 7 7 6 7 8 8 9 10 11 12 14 15 16 17 17 17 17 18 19 20 21 21 23 23 23 23 23 23 21 21
16 16 16 15 15 14 13 11 10 8 7 7 6 6 5 5 5 6 7 8 9 10 11 13 14 15 15 16 16 16 16 17 18 18 19 20 20 20 20 20 20 19 18 18
Wind_Direction
224 218 215 215 216 216 215 212 212 214 218 219 221 218 217 222 226 229 231 231 228 229 231 228 225 228 233 241 245 246 246 249 251 253 258 260 262 264 269 271 272 276 277 279
222 216 212 212 213 214 214 211 209 212 217 219 222 222 221 224 228 230 231 231 229 227 229 229 228 232 237 244 248 248 248 247 250 254 259 263 266 269 268 269 274 278 281 283
221 213 210 210 210 212 212 210 208 211 216 219 221 225 226 227 231 233 232 232 230 230 229 228 229 235 238 242 246 248 249 253 254 256 261 265 269 272 271 274 279 281 284 289
217 211 210 210 209 209 209 208 207 210 215 218 219 221 226 226 227 229 229 229 229 229 229 231 234 238 241 242 243 247 252 259 264 266 268 270 273 276 279 281 286 288 287 289
214 211 210 208 207 207 205 206 205 209 213 216 218 220 221 221 222 223 223 224 226 227 229 233 236 239 243 245 246 251 256 263 268 270 276 277 276 276 279 289 293 292 292 291
212 211 209 206 205 205 203 206 206 208 212 215 217 219 216 218 219 221 221 222 223 225 228 232 236 241 245 247 249 254 259 265 269 272 274 275 276 279 284 291 293 294 293 292
208 207 205 204 204 204 204 206 207 209 212 215 218 220 217 217 219 221 222 223 225 226 229 233 237 241 246 249 251 256 261 265 269 271 273 275 280 282 286 290 293 295 292 292
193 193 196 200 202 203 204 207 209 212 215 217 219 222 220 220 222 225 227 229 231 232 235 239 241 245 249 252 255 259 262 266 269 272 275 279 283 285 289 292 294 293 292 290
179 183 189 195 198 202 205 208 210 215 218 221 223 226 225 224 226 229 233 236 239 241 243 246 249 251 254 257 259 261 264 267 269 271 274 278 283 286 289 292 292 291 290 288
179 184 190 194 199 204 208 211 213 216 219 223 227 230 232 231 233 234 238 242 245 247 250 253 255 257 259 261 262 263 265 268 269 272 276 280 282 284 286 288 290 289 288 288
182 189 194 199 202 206 210 214 218 220 223 226 231 234 237 240 241 242 244 246 250 254 257 259 260 262 264 264 264 264 266 267 269 272 275 278 279 281 283 285 286 285 286 287
191 196 201 204 207 211 216 220 223 226 228 231 235 239 240 245 247 249 251 253 255 259 261 263 264 265 265 266 265 265 266 268 269 271 274 276 278 279 279 280 280 282 285 286
198 203 207 209 212 217 222 225 228 232 235 237 239 242 244 248 251 253 255 257 259 261 263 265 267 268 268 269 268 267 267 268 269 269 270 272 274 274 277 278 279 281 283 285
210 211 215 219 223 225 229 232 235 238 240 242 244 248 249 251 253 255 257 259 262 264 265 268 270 273 272 271 271 271 269 267 268 270 272 273 274 275 278 280 281 282 284 285
231 231 229 229 234 236 239 241 245 247 247 249 251 254 256 257 257 259 261 264 265 267 269 269 271 275 275 272 274 274 274 274 274 274 274 275 276 278 281 282 284 285 285 286
271 256 247 243 245 249 250 251 252 253 254 254 256 260 262 262 262 265 267 269 270 271 272 272 274 278 278 276 276 277 276 276 276 277 279 281 282 282 283 283 284 284 285 285
334 298 275 262 256 256 256 257 257 257 258 260 261 263 264 266 268 270 270 271 274 274 274 275 276 276 275 277 278 278 278 276 277 277 280 283 284 284 284 285 285 285 286 287
354 329 306 286 275 267 267 261 260 261 262 264 264 265 266 268 268 270 269 270 272 272 274 275 276 277 277 279 279 278 280 280 280 281 283 284 286 287 288 288 288 288 289 290
3 351 336 316 298 287 280 274 268 268 268 269 271 271 272 271 271 272 272 273 273 276 277 276 277 277 277 280 280 279 281 283 284 284 285 287 289 290 291 291 291 292 293 294
12 5 355 340 322 307 296 285 281 277 274 275 275 276 277 274 274 273 271 270 271 274 273 276 278 277 280 281 280 281 284 285 286 287 288 290 292 293 294 295 296 297 298 299
14 9 3 354 344 332 318 306 297 288 285 280 277 276 274 273 271 270 270 269 270 272 274 276 277 278 281 283 285 287 289 289 291 292 293 294 296 297 299 300 300 301 302 303
14 11 8 3 358 348 338 327 315 304 295 290 286 281 278 276 275 274 274 273 273 275 278 279 281 284 287 290 291 293 293 294 295 297 298 299 301 302 303 304 305 306 307 307
15 13 11 8 3 356 349 339 329 320 311 302 296 292 283 279 278 278 278 280 282 283 286 287 288 291 294 296 298 297 297 299 300 301 302 304 305 306 307 309 310 311 312 312
15 14 11 8 5 0 354 347 339 333 326 319 312 304 298 292 288 285 286 287 289 291 291 292 294 297 299 301 301 302 302 303 306 307 308 310 311 312 314 316 316 316 316 318
14 12 10 7 5 2 359 352 346 340 333 326 319 313 310 307 303 302 302 302 302 302 304 304 304 305 305 305 305 306 306 308 310 312 314 316 318 320 321 323 324 324 325 327
13 11 9 6 4 2 359 355 349 343 338 336 334 334 335 333 328 324 321 320 319 316 313 311 310 309 308 307 307 307 309 312 314 316 318 321 323 326 327 330 331 332 333 337
Height
5756 5761 5765 5770 5775 5780 5786 5792 5797 5802 5805 5809 5813 5818 5821 5824 5828 5832 5836 5841 5846 5850 5854 5857 5860 5862 5864 5866 5867 5869 5870 5871 5871 5872 5872 5872 5872 5871 5870 5869 5868 5866 5864 5863
5754 5758 5762 5765 5770 5776 5782 5788 5794 5798 5801 5806 5810 5814 5818 5821 5824 5828 5832 5837 5841 5845 5848 5852 5855 5857 5859 5861 5862 5863 5864 5865 5865 5865 5866 5865 5865 5864 5863 5861 5860 5859 5858 5857
5750 5755 5758 5762 5767 5772 5778 5784 5790 5794 5797 5802 5807 5811 5814 5817 5820 5824 5827 5832 5836 5840 5844 5848 5850 5853 5855 5856 5856 5858 5859 5859 5859 5860 5860 5860 5859 5858 5856 5855 5854 5853 5852 5851
5747 5750 5754 5759 5764 5769 5775 5781 5785 5790 5794 5798 5804 5807 5810 5813 5817 5820 5823 5828 5832 5836 5840 5843 5846 5848 5850 5851 5852 5853 5854 5854 5855 5854 5854 5853 5852 5851 5850 5848 5847 5846 5845 5844
5744 5747 5751 5756 5761 5766 5772 5776 5782 5786 5791 5796 5800 5804 5807 5810 5813 5817 5820 5824 5828 5832 5835 5838 5841 5843 5845 5846 5848 5849 5849 5849 5849 5848 5847 5847 5845 5844 5843 5841 5840 5839 5838 5836
5742 5745 5749 5754 5758 5763 5768 5773 5779 5783 5788 5793 5797 5801 5804 5807 5811 5814 5817 5821 5824 5828 5831 5834 5836 5838 5840 5841 5842 5843 5843 5843 5843 5842 5841 5840 5837 5836 5834 5833 5832 5831 5830 5828
5740 5744 5748 5752 5756 5761 5766 5771 5776 5781 5785 5790 5793 5797 5801 5804 5807 5811 5814 5817 5820 5823 5826 5828 5830 5832 5833 5834 5835 5835 5836 5836 5835 5834 5833 5831 5829 5827 5826 5824 5824 5823 5822 5821
5740 5744 5747 5751 5755 5759 5763 5769 5774 5779 5782 5786 5790 5792 5797 5800 5803 5807 5810 5812 5815 5818 5820 5822 5823 5825 5826 5827 5827 5827 5828 5827 5827 5825 5824 5822 5821 5819 5816 5815 5815 5815 5814 5813
5740 5744 5747 5750 5754 5758 5762 5766 5771 5775 5778 5782 5785 5788 5792 5795 5799 5802 5805 5807 5809 5811 5813 5815 5817 5818 5819 5820 5820 5820 5820 5819 5818 5817 5816 5814 5812 5810 5808 5807 5807 5806 5805 5804
5740 5744 5747 5750 5753 5757 5761 5764 5768 5772 5775 5778 5781 5784 5787 5790 5793 5796 5799 5801 5803 5805 5807 5808 5809 5810 5811 5812 5812 5812 5811 5810 5809 5808 5807 5806 5803 5802 5801 5800 5799 5797 5795 5794
5741 5744 5746 5749 5752 5755 5759 5762 5765 5768 5771 5774 5777 5781 5782 5785 5787 5789 5791 5793 5795 5797 5799 5800 5801 5802 5802 5802 5803 5802 5802 5801 5800 5799 5798 5797 5795 5794 5792 5790 5789 5788 5786 5784
5741 5744 5745 5748 5751 5754 5756 5759 5762 5765 5767 5770 5772 5777 5776 5778 5780 5782 5784 5785 5787 5789 5790 5791 5792 5792 5792 5792 5792 5792 5791 5791 5790 5789 5788 5786 5784 5783 5782 5780 5778 5777 5775 5773
5741 5743 5745 5747 5751 5753 5754 5756 5758 5761 5763 5765 5767 5771 5771 5772 5774 5775 5776 5778 5779 5780 5781 5782 5782 5783 5783 5782 5782 5781 5781 5780 5780 5779 5777 5776 5774 5772 5771 5769 5767 5765 5763 5761
5741 5743 5745 5747 5748 5749 5751 5753 5755 5757 5758 5760 5762 5763 5765 5766 5767 5768 5769 5770 5770 5771 5772 5773 5773 5773 5773 5773 5772 5772 5771 5770 5769 5768 5767 5765 5764 5762 5760 5758 5756 5753 5751 5748
5740 5741 5742 5744 5745 5747 5748 5749 5751 5752 5753 5755 5756 5757 5758 5759 5760 5760 5761 5762 5762 5763 5763 5764 5764 5764 5764 5764 5763 5762 5762 5760 5759 5758 5756 5755 5753 5752 5749 5747 5744 5742 5739 5735
5739 5740 5740 5741 5742 5743 5744 5745 5746 5748 5748 5749 5750 5751 5751 5751 5752 5753 5753 5754 5754 5755 5755 5755 5755 5755 5755 5754 5753 5753 5752 5751 5749 5748 5746 5744 5742 5740 5738 5735 5733 5729 5726 5722
5738 5739 5739 5739 5739 5740 5741 5741 5742 5742 5743 5744 5744 5745 5744 5745 5745 5745 5746 5746 5746 5747 5747 5747 5746 5746 5746 5745 5744 5744 5742 5741 5739 5738 5736 5734 5731 5729 5726 5723 5721 5717 5713 5710
5738 5737 5737 5736 5737 5737 5739 5736 5737 5737 5737 5737 5738 5738 5738 5738 5738 5738 5739 5739 5739 5739 5739 5739 5738 5738 5737 5736 5736 5734 5733 5732 5730 5728 5726 5724 5721 5718 5715 5712 5709 5705 5701 5697
5738 5737 5735 5734 5733 5733 5733 5732 5732 5732 5732 5732 5732 5732 5732 5732 5732 5732 5732 5732 5732 5732 5732 5731 5731 5730 5729 5728 5727 5726 5725 5723 5721 5719 5717 5714 5711 5708 5705 5702 5698 5694 5689 5684
5738 5736 5734 5732 5731 5730 5731 5729 5728 5729 5728 5727 5727 5726 5726 5726 5727 5727 5726 5726 5726 5726 5726 5725 5724 5724 5723 5721 5720 5719 5717 5715 5713 5711 5708 5705 5702 5699 5696 5692 5688 5683 5678 5673
5738 5735 5733 5731 5729 5728 5727 5726 5725 5726 5725 5723 5722 5722 5722 5721 5722 5722 5721 5721 5721 5721 5720 5720 5719 5718 5716 5715 5714 5712 5710 5708 5705 5703 5700 5697 5694 5690 5687 5682 5678 5673 5668 5662
5738 5735 5732 5730 5728 5729 5725 5723 5723 5722 5720 5719 5718 5718 5718 5717 5717 5717 5717 5717 5716 5716 5715 5714 5713 5712 5710 5709 5707 5705 5703 5701 5698 5695 5692 5689 5686 5682 5678 5674 5669 5664 5659 5653
5738 5736 5733 5731 5730 5726 5723 5721 5720 5718 5717 5716 5716 5715 5715 5715 5714 5714 5713 5713 5712 5711 5710 5709 5708 5707 5705 5703 5701 5699 5697 5694 5692 5689 5686 5683 5679 5675 5671 5667 5661 5656 5651 5646
5738 5735 5733 5729 5727 5724 5722 5720 5718 5717 5715 5715 5714 5713 5713 5712 5711 5711 5710 5709 5708 5707 5706 5705 5703 5702 5700 5698 5696 5693 5691 5688 5686 5683 5680 5677 5673 5669 5665 5660 5655 5651 5646 5641
5739 5735 5732 5729 5727 5724 5721 5719 5717 5715 5714 5713 5712 5711 5710 5710 5709 5708 5707 5706 5705 5704 5703 5701 5699 5697 5695 5693 5691 5688 5686 5684 5681 5678 5675 5671 5668 5664 5660 5655 5651 5646 5641 5637
5738 5736 5733 5730 5727 5724 5721 5719 5716 5715 5713 5712 5711 5710 5709 5708 5707 5706 5705 5704 5702 5701 5699 5698 5696 5693 5691 5689 5686 5684 5682 5679 5677 5674 5671 5667 5664 5660 5656 5652 5648 5643 5639 5635